Weather History for MNMG - November, 2012

Change the Weather History Date:

Wednesday, November 7, 2012

  Actual Average Record
Temperature  
Mean Temperature 82 °F -  
Max Temperature 91 °F 86 °F 91 °F (1996)
Min Temperature 73 °F 70 °F 66 °F (2010)
Cooling Degree Days 17    
Growing Degree Days 32 (Base 50)    
Moisture  
Dew Point 71 °F    
Average Humidity 70    
Maximum Humidity 94    
Minimum Humidity 46    
Precipitation  
Precipitation 0.00 in - - ()
Sea Level Pressure  
Sea Level Pressure 29.84 in    
Wind  
Wind Speed 4 mph ()    
Max Wind Speed 14 mph    
Max Gust Speed -    
Visibility 6.2 miles    
Events      
Averages and records for this station are not official NWS values.
T = Trace of Precipitation, MM = Missing Value Source: Averaged Metar Reports

Daily Weather History Graph

Daily Weather History Graph

Search for Another Location

Airport or City:

Trip Planner

Search our weather history database for the weather conditions in past years. The results will help you decide how hot, cold, wet, or windy it might be!

Date:

Astronomy

Nov. 07, 2012 Rise Set
Actual Time 5:39 AM CST 5:17 PM CST
Civil Twilight 5:17 AM CST 5:39 PM CST
Nautical Twilight 4:51 AM CST 6:04 PM CST
Astronomical Twilight 4:26 AM CST 6:29 PM CST
Moon No Moon Rise 12:22 PM CST (11/7)
Length of Visible Light 12h 21m
Length of Day
11h 37m
Last Quarter, 43% of the Moon is Illuminated
Nov 7
Last Quarter
Nov 13
New
Nov 20
First Quarter
Nov 28
Full
Dec 6
Last Quarter

Hourly Weather History & Observations

Time (CST) Temp. Heat Index Dew Point Humidity Pressure Visibility Wind Dir Wind Speed Gust Speed Precip Events Conditions
12:00 AM 78.8 °F - 71.6 °F 78% 29.86 in 6.2 mi East 4.6 mph - N/A   Partly Cloudy
1:00 AM 77.0 °F - 71.6 °F 83% 29.86 in 6.2 mi SE 4.6 mph - N/A   Partly Cloudy
2:00 AM 77.0 °F - 71.6 °F 83% 29.86 in 6.2 mi Calm Calm - N/A   Partly Cloudy
3:00 AM 75.2 °F - 71.6 °F 89% 29.83 in 6.2 mi Calm Calm - N/A   Partly Cloudy
4:00 AM 73.4 °F - 71.6 °F 94% 29.83 in 6.2 mi Calm Calm - N/A   Partly Cloudy
5:00 AM 73.4 °F - 71.6 °F 94% 29.83 in 6.2 mi Calm Calm - N/A   Partly Cloudy
6:00 AM 73.4 °F - 69.8 °F 88% 29.86 in 6.2 mi Calm Calm - N/A   Partly Cloudy
7:00 AM 78.8 °F - 71.6 °F 78% 29.86 in 6.2 mi ESE 4.6 mph - N/A   Partly Cloudy
8:00 AM 82.4 °F 87.2 °F 71.6 °F 70% 29.89 in 6.2 mi East 4.6 mph - N/A   Partly Cloudy
9:00 AM 86.0 °F 90.4 °F 69.8 °F 58% 29.89 in 6.2 mi NE 6.9 mph - N/A   Partly Cloudy
10:00 AM 84.2 °F 89.6 °F 71.6 °F 66% 29.86 in 6.2 mi NNW 4.6 mph - N/A   Scattered Clouds
11:00 AM 89.6 °F 96.2 °F 71.6 °F 55% 29.86 in 6.2 mi ENE 9.2 mph - N/A   Scattered Clouds
12:00 PM 89.6 °F 94.7 °F 69.8 °F 52% 29.83 in 6.2 mi ENE 6.9 mph - N/A   Partly Cloudy
1:00 PM 91.4 °F 96.8 °F 69.8 °F 49% 29.80 in 6.2 mi NE 9.2 mph - N/A   Partly Cloudy
2:00 PM 91.4 °F 95.4 °F 68.0 °F 46% 29.77 in 6.2 mi East 13.8 mph - N/A   Partly Cloudy
3:00 PM 91.4 °F 96.8 °F 69.8 °F 49% 29.74 in 6.2 mi ENE 11.5 mph - N/A   Partly Cloudy
4:00 PM 91.4 °F 96.8 °F 69.8 °F 49% 29.74 in 6.2 mi East 9.2 mph - N/A   Partly Cloudy
5:00 PM 87.8 °F 92.6 °F 69.8 °F 55% 29.77 in 6.2 mi ENE 6.9 mph - N/A   Partly Cloudy
6:00 PM 86.0 °F 91.8 °F 71.6 °F 62% 29.80 in 6.2 mi East 4.6 mph - N/A   Partly Cloudy
7:00 PM 82.4 °F 87.2 °F 71.6 °F 70% 29.83 in 6.2 mi East 6.9 mph - N/A   Partly Cloudy
8:00 PM 82.4 °F 86.3 °F 69.8 °F 66% 29.86 in 6.2 mi ESE 11.5 mph - N/A   Partly Cloudy
9:00 PM 77.0 °F - 71.6 °F 83% 29.89 in 6.2 mi SE 6.9 mph - N/A   Scattered Clouds
10:00 PM 77.0 °F - 71.6 °F 83% 29.89 in 6.2 mi Calm Calm - N/A   Scattered Clouds
11:00 PM 77.0 °F - 71.6 °F 83% 29.89 in 6.2 mi SE 4.6 mph - N/A   Scattered Clouds